ROCKY HARBOUR CS/NF, current weather conditions

sailwx.info

Last reported at 2016-Jan-14 09:31 UTC.
Time now 2016-Feb-10 22:04 UTC

Location: N 49°34' W 057°53'.
View on Google Maps.

See reports from other nearby stations

  
Tides and Currents Weather Stations Pressure Air Temp Water Temp Dewpoint Dewpoint Depression Visibility Wind Speed Wind Dir Waves Ship Positions
date/time (UTC)wind fromknots sea level pressurealtimeterstation pressurevisibilityair tempwater tempwave heightnotes
2016-Feb-10 20:00 250 11 gusting 17 -1.0
2016-Feb-10 19:00 250 14 gusting 20 -0.0
2016-Feb-10 18:00 250 11 gusting 19 1.0
2016-Feb-10 17:00 270 6 1.0
2016-Feb-10 16:00 260 6 2.0
2016-Feb-10 15:00 250 1 2.0
2016-Feb-10 14:00 260 2 -0.0
2016-Feb-10 13:00 260 1 -1.0
2016-Feb-10 12:00 -2.0
2016-Feb-10 11:00 300 3 -1.0
2016-Feb-10 10:00 050 4 -1.0
2016-Feb-10 09:00 110 8 -1.0
2016-Feb-10 08:00 050 7 gusting 17 -1.0
2016-Feb-10 07:00 080 5 -1.0
2016-Feb-10 06:00 130 10 gusting 26 -2.0
2016-Feb-10 05:00 070 15 gusting 30 -2.0
2016-Feb-10 04:00 070 12 gusting 24 -2.0
2016-Feb-10 03:00 060 16 gusting 29 -3.0
2016-Feb-10 02:00 070 19 gusting 30 -4.0
2016-Feb-10 01:00 070 22 gusting 36 -3.0
2016-Feb-10 00:00 070 23 gusting 37 -3.0
2016-Feb-09 23:00 070 23 gusting 37 -3.0
2016-Feb-09 22:00 070 20 gusting 36 -4.0
2016-Feb-09 21:00 060 14 gusting 27 -4.0
2016-Feb-09 20:00 240 12 gusting 31 -4.0
2016-Feb-09 19:00 230 8 gusting 18 -5.0
2016-Feb-09 18:00 310 6 gusting 19 -4.0
2016-Feb-09 17:00 040 11 gusting 25 -4.0
2016-Feb-09 16:00 030 10 gusting 25 -5.0
2016-Feb-09 15:00 100 14 gusting 42 -5.0
2016-Feb-09 14:00 120 9 gusting 24 -6.0
2016-Feb-09 13:00 280 9 gusting 17 -7.0
2016-Feb-09 12:00 220 3 -8.0
2016-Feb-09 11:00 140 3 -9.0
2016-Feb-09 10:00 310 2 -10.0
2016-Feb-09 09:00 350 3 -9.0
2016-Feb-09 08:00 130 6 gusting 15 -10.0
2016-Feb-09 07:00 160 5 -10.0
2016-Feb-09 06:00 070 6 -10.0
2016-Feb-09 05:00 070 5 -10.0
2016-Feb-09 04:00 090 9 gusting 15 -11.0
2016-Feb-09 03:00 100 3 -10.0
2016-Feb-09 02:00 090 5 -11.0
2016-Feb-09 01:00 120 7 -11.0
2016-Feb-09 00:00 080 4 -11.0
2016-Feb-08 23:00 120 4 -10.0
2016-Feb-08 22:00 110 1 -10.0